Location: Dillon
(41.1766°N, 107.0923°W)
Time: 03:01:40
(UTC+00:00)

M-CUBED/EXP-1 PRIME - Visible Passes

Search period start: 29 June 2022 00:00
Search period end: 09 July 2022 00:00
Orbit: 423 x 634 km, 101.7° (Epoch: 28 June)

Date Brightness Start Highest point End Pass type
(mag) Time Alt. Az. Time Alt. Az. Time Alt. Az.
29 Jun ? 08:29:17 35° NW 08:29:17 35° NW 08:31:23 10° NNW visible
30 Jun ? 08:18:02 42° N 08:18:02 42° N 08:20:22 10° NNW visible
01 Jul ? 08:06:46 39° NNE 08:06:46 39° NNE 08:09:16 10° N visible
02 Jul ? 07:55:30 30° NE 07:55:30 30° NE 07:58:05 10° N visible
03 Jul ? 07:44:14 22° ENE 07:44:14 22° ENE 07:46:46 10° N visible
03 Jul ? 09:19:29 14° WNW 09:19:29 14° WNW 09:20:21 10° NW visible
04 Jul ? 07:32:57 16° ENE 07:33:09 16° ENE 07:35:16 10° NNE visible
04 Jul ? 09:08:12 20° WNW 09:08:12 20° WNW 09:09:43 10° NW visible
05 Jul ? 07:21:39 11° ENE 07:22:14 11° ENE 07:23:22 10° NE visible
05 Jul ? 08:56:54 29° NW 08:56:54 29° NW 08:58:55 10° NNW visible
06 Jul ? 08:45:36 40° NW 08:45:36 40° NW 08:47:59 10° NNW visible
07 Jul ? 08:34:17 50° N 08:34:17 50° N 08:36:57 10° NNW visible
08 Jul ? 08:22:58 45° NE 08:22:58 45° NE 08:25:49 10° N visible
